Location: ??????
(38.0131°N, 23.7723°E)
Time: 06:27:24
(UTC+00:00)

NOSS 2-3 (E) - Pass Details

Date: 17 October 2021
Orbit: 540 x 1670 km, 63.4° (Epoch: 25 November)

Event Time Altitude Azimuth Distance (km) Brightness Sun altitude
Rises 17:04:36 0° 188° (S) 2,696 6.9 -16.5°
Reaches altitude 10° 17:06:55 10° 177° (S) 1,792 5.9 -17.0°
Enters shadow 17:09:40 29° 135° (SE) 1,029 4.3 -17.5°
